TimePDT,TemperatureF,Dew PointF,Humidity,Sea Level PressureIn,VisibilityMPH,Wind Direction,Wind SpeedMPH,Gust SpeedMPH,PrecipitationIn,Events,Conditions,WindDirDegrees,DateUTC
12:55 AM,59.4,55.2,86,29.99,10.0,Calm,Calm,-,N/A,,Clear,0,2012-10-06 07:55:00
1:55 AM,57.7,54.3,88,29.99,10.0,Calm,Calm,-,N/A,,Clear,0,2012-10-06 08:55:00
2:55 AM,56.1,53.6,91,29.98,10.0,Calm,Calm,-,N/A,,Clear,0,2012-10-06 09:55:00
3:55 AM,56.1,55.6,98,29.96,10.0,Calm,Calm,-,N/A,,Clear,0,2012-10-06 10:55:00
4:55 AM,55.0,54.5,98,29.96,10.0,Calm,Calm,-,N/A,,Clear,0,2012-10-06 11:55:00
5:55 AM,56.5,53.2,89,29.97,10.0,Calm,Calm,-,N/A,,Clear,0,2012-10-06 12:55:00
6:55 AM,54.1,53.1,96,29.98,10.0,Calm,Calm,-,N/A,,Clear,0,2012-10-06 13:55:00
7:55 AM,58.3,56.1,93,29.99,10.0,Calm,Calm,-,N/A,,Clear,0,2012-10-06 14:55:00
8:55 AM,62.8,54.1,73,29.99,10.0,Calm,Calm,-,N/A,,Clear,0,2012-10-06 15:55:00
9:55 AM,68.5,55.0,62,29.99,10.0,Calm,Calm,-,N/A,,Clear,0,2012-10-06 16:55:00
10:55 AM,73.9,54.1,50,29.98,10.0,Calm,Calm,-,N/A,,Clear,0,2012-10-06 17:55:00
11:55 AM,77.4,52.9,42,29.96,10.0,Calm,Calm,-,N/A,,Clear,0,2012-10-06 18:55:00
12:55 PM,80.2,48.6,33,29.94,10.0,WNW,11.5,-,N/A,,Mostly Cloudy,290,2012-10-06 19:55:00
1:55 PM,82.0,49.6,32,29.91,10.0,West,9.2,-,N/A,,Clear,270,2012-10-06 20:55:00
2:55 PM,81.1,53.2,38,29.90,10.0,NW,11.5,-,N/A,,Clear,320,2012-10-06 21:55:00
3:55 PM,81.3,52.3,37,29.90,10.0,WNW,10.4,-,N/A,,Clear,290,2012-10-06 22:55:00
4:55 PM,77.9,54.3,44,29.89,10.0,NNW,9.2,-,N/A,,Mostly Cloudy,330,2012-10-06 23:55:00
5:55 PM,75.6,55.2,49,29.90,10.0,West,5.8,-,N/A,,Clear,270,2012-10-07 00:55:00
6:55 PM,71.4,56.7,60,29.92,10.0,West,8.1,-,N/A,,Clear,280,2012-10-07 01:55:00
7:55 PM,69.3,58.1,68,29.93,10.0,West,3.5,-,N/A,,Clear,270,2012-10-07 02:55:00
8:55 PM,68.5,57.4,67,29.93,10.0,Calm,Calm,-,N/A,,Clear,0,2012-10-07 03:55:00
9:55 PM,65.7,57.7,76,29.94,10.0,Calm,Calm,-,N/A,,Clear,0,2012-10-07 04:55:00
10:55 PM,64.2,57.9,80,29.94,10.0,SSE,3.5,-,N/A,,Clear,160,2012-10-07 05:55:00
11:55 PM,62.4,57.6,84,29.94,10.0,Calm,Calm,-,N/A,,Clear,0,2012-10-07 06:55:00